Flag for Cambodia Weather past 2 weeks in Phnom Penh, Cambodia

88 °F

Passing clouds.

Feels Like: 100 °F
Forecast: 75 / 89 °F
Wind: 1 mph from North

Location: Phnom-Penh / Pochentong

Current Time: Oct 13, 2015 at 6:58:40 PM

Latest Report: Oct 13, 2015 at 6:30 PM

Visibility: 6 mi

Pressure: 29.83 "Hg

Humidity: 70%

Dew point: 77 °F

Location of Phnom PenhLocation

Historic Weather in Phnom Penh — Graph


Phnom Penh temperature yesterday

Maximum temperature yesterday: 90 °F (at 3:30 PM)
Minimum temperature yesterday: 77 °F (at 9:30 PM)
Average temperature yesterday: 84 °F

Past Weeks' High & Low Weather Summary

High93 °F (Sep 29, 2:30 PM)100% (Oct 8, 6:00 PM)29.95 "Hg (Oct 8, 6:00 PM)
Low73 °F (Oct 8, 6:30 PM)49% (Oct 7, 4:30 PM)29.56 "Hg (Oct 3, 12:00 PM)
Average84 °F75%29.83 "Hg
* Reported Sep 28 5:00 PM — Oct 13 5:30 PM, Phnom Penh, Weather by CustomWeather, © 2015

Note: Actual official high and low records may vary slightly from our data, if they occured in-between our weather recording intervals... More about our weather records


Phnom Penh weather history for previous 24 hours

Time TempWeatherWind HumidityBarometerVisibility
5:30 PM
Tue, Oct 13
88 °FScattered clouds.2 mph66%29.80 "HgN/A
5:00 PM90 °FPassing clouds.1 mph59%29.80 "HgN/A
4:30 PM90 °FPassing clouds.3 mph63%29.80 "HgN/A
4:00 PM93 °FPassing clouds.2 mph53%29.80 "HgN/A
3:30 PM93 °FScattered clouds.2 mph53%29.80 "HgN/A
3:00 PM93 °FScattered clouds.1 mph59%29.80 "HgN/A
2:30 PM90 °FScattered clouds.2 mph63%29.80 "HgN/A
2:00 PM91 °FScattered clouds.2 mph59%29.80 "HgN/A
1:30 PM88 °FScattered clouds.3 mph66%29.83 "HgN/A
1:00 PM88 °FScattered clouds.5 mph66%29.83 "HgN/A
12:30 PM88 °FScattered clouds.7 mph66%29.86 "HgN/A
12:00 PM86 °FScattered clouds.6 mph70%29.86 "HgN/A
11:30 AM88 °FScattered clouds.6 mph66%29.89 "HgN/A
11:00 AM88 °FScattered clouds.6 mph70%29.92 "HgN/A
10:30 AM86 °FScattered clouds.6 mph75%29.92 "HgN/A
10:00 AM84 °FScattered clouds.7 mph74%29.95 "HgN/A
9:30 AM84 °FScattered clouds.5 mph79%29.95 "HgN/A
9:00 AM82 °FScattered clouds.7 mph84%29.95 "HgN/A
8:30 AM82 °FScattered clouds.6 mph84%29.95 "HgN/A
8:00 AM81 °FScattered clouds.7 mph89%29.92 "HgN/A
7:30 AM81 °FScattered clouds.8 mph89%29.92 "HgN/A
7:00 AM81 °FScattered clouds.5 mph89%29.92 "HgN/A
6:30 AM79 °FScattered clouds.2 mph94%29.92 "HgN/A
6:00 AM79 °FScattered clouds.3 mph94%29.89 "HgN/A
1:00 AM79 °FPassing clouds.3 mph89%29.89 "HgN/A
12:30 AM79 °FPassing clouds.3 mph89%29.89 "HgN/A
12:00 AM79 °FPassing clouds.2 mph89%29.89 "HgN/A
10:00 PM
Mon, Oct 12
77 °FPassing clouds.3 mph94%29.92 "Hg6 mi
9:30 PM77 °FPassing clouds.12 mph94%29.92 "Hg6 mi
9:00 PM79 °FPassing clouds.9 mph84%29.92 "Hg6 mi
8:30 PM82 °FPassing clouds.7 mph79%29.89 "Hg6 mi
8:00 PM82 °FPassing clouds.5 mph79%29.89 "Hg6 mi
7:30 PM82 °FPartly cloudy.5 mph79%29.86 "Hg6 mi
7:00 PM82 °FPartly cloudy.2 mph84%29.86 "Hg6 mi
6:30 PM82 °FPartly cloudy.5 mph84%29.83 "Hg6 mi
6:00 PM84 °FPartly cloudy.7 mph79%29.83 "Hg6 mi
Weather by CustomWeather, © 2015

See weather overviewHow to use our weather pages